ACA373 CYUL-CYWG

Flight info

Callsign ACA373
Flight time 2h 42m
Altitude 38000
Route KESKA DCT BIPKO DCT IPSAK DCT OMEGI DCT RADEN DCT OVORA DCT GABOV DCT EMIVA NORAK6
Aircraft A321/M-SDE3FGHIRWY/LB1

Departure

Time 2026-05-04 17:35
Airport Montreal / Pierre Elliott Trudeau International Airport (CYUL)

Arrival

Time 2026-05-04 20:17
Airport Winnipeg / James Armstrong Richardson International Airport (CYWG)
Time Latitude Longitude Altitude Speed Heading
2026-05-04 17:18 45.45933 -73.74848 105 ft 0 kts 178°
2026-05-04 17:21 45.45944 -73.74849 112 ft 4 kts 178°
2026-05-04 17:21 45.45981 -73.74876 103 ft 4 kts 94°
2026-05-04 17:22 45.45981 -73.74900 100 ft 1 kts 88°
2026-05-04 17:22 45.45981 -73.74903 101 ft 0 kts 88°
2026-05-04 17:25 45.45982 -73.74866 105 ft 4 kts 88°
2026-05-04 17:26 45.45977 -73.74766 105 ft 5 kts 108°
2026-05-04 17:26 45.45969 -73.74532 102 ft 12 kts 75°
2026-05-04 17:27 45.45972 -73.74332 102 ft 10 kts 109°
2026-05-04 17:27 45.46067 -73.74150 103 ft 16 kts 43°
2026-05-04 17:28 45.46226 -73.73944 105 ft 14 kts 43°
2026-05-04 17:29 45.46489 -73.73598 107 ft 24 kts 42°
2026-05-04 17:29 45.46871 -73.73097 115 ft 25 kts 43°
2026-05-04 17:30 45.47252 -73.72599 117 ft 25 kts 43°
2026-05-04 17:31 45.47512 -73.72256 118 ft 26 kts 43°
2026-05-04 17:31 45.47808 -73.71825 120 ft 10 kts 99°
2026-05-04 17:32 45.47755 -73.71699 121 ft 6 kts 128°
2026-05-04 17:33 45.47667 -73.71652 122 ft 9 kts 216°
2026-05-04 17:33 45.47654 -73.71669 124 ft 0 kts 221°
2026-05-04 17:34 45.46745 -73.72858 113 ft 142 kts 223°
2026-05-04 17:34 45.45943 -73.73907 414 ft 157 kts 222°
2026-05-04 17:35 45.43548 -73.77165 2238 ft 179 kts 227°
2026-05-04 17:35 45.41529 -73.79926 2669 ft 226 kts 226°
2026-05-04 17:35 45.40480 -73.81685 3127 ft 238 kts 245°
2026-05-04 17:36 45.40091 -73.83959 3931 ft 240 kts 272°
2026-05-04 17:36 45.40545 -73.86235 4766 ft 245 kts 299°
2026-05-04 17:36 45.41701 -73.88061 5528 ft 250 kts 313°
2026-05-04 17:36 45.42974 -73.89765 6291 ft 253 kts 313°
2026-05-04 17:37 45.44265 -73.91482 6982 ft 255 kts 313°
2026-05-04 17:37 45.45565 -73.93213 7725 ft 256 kts 313°
2026-05-04 17:37 45.46868 -73.94955 8483 ft 257 kts 313°
2026-05-04 17:37 45.48174 -73.96710 9212 ft 259 kts 312°
2026-05-04 17:38 45.49486 -73.98475 9955 ft 260 kts 312°
2026-05-04 17:38 45.50824 -74.00282 10340 ft 274 kts 312°
2026-05-04 17:38 45.52237 -74.02203 10469 ft 294 kts 312°
2026-05-04 17:38 45.53761 -74.04275 10751 ft 308 kts 313°
2026-05-04 17:39 45.56907 -74.08533 11932 ft 314 kts 313°
2026-05-04 17:39 45.58494 -74.10683 12561 ft 315 kts 313°
2026-05-04 17:39 45.60093 -74.12844 13182 ft 317 kts 313°
2026-05-04 17:40 45.61647 -74.15085 13769 ft 317 kts 307°
2026-05-04 17:40 45.62966 -74.17610 14304 ft 318 kts 304°
2026-05-04 17:40 45.64270 -74.20184 14843 ft 321 kts 303°
2026-05-04 17:40 45.65132 -74.21908 15239 ft 323 kts 303°
2026-05-04 17:41 45.66441 -74.24527 15782 ft 325 kts 303°
2026-05-04 17:41 45.67753 -74.27163 16327 ft 326 kts 303°
2026-05-04 17:41 45.68887 -74.29971 16843 ft 328 kts 290°
2026-05-04 17:41 45.69419 -74.33150 17342 ft 330 kts 282°
2026-05-04 17:42 45.69830 -74.36400 17827 ft 333 kts 282°
2026-05-04 17:42 45.70229 -74.39672 18267 ft 335 kts 282°
2026-05-04 17:42 45.70625 -74.42969 18667 ft 338 kts 282°
2026-05-04 17:42 45.71022 -74.46290 19056 ft 340 kts 282°
2026-05-04 17:43 45.71422 -74.49633 19444 ft 342 kts 282°
2026-05-04 17:43 45.71826 -74.52991 19822 ft 344 kts 282°
2026-05-04 17:43 45.72236 -74.56378 20153 ft 347 kts 282°
2026-05-04 17:43 45.72649 -74.59789 20499 ft 349 kts 282°
2026-05-04 17:44 45.73063 -74.63227 20854 ft 351 kts 282°
2026-05-04 17:44 45.73474 -74.66683 21212 ft 353 kts 282°
2026-05-04 17:44 45.73883 -74.70116 21561 ft 355 kts 282°
2026-05-04 17:44 45.74299 -74.73608 21909 ft 357 kts 282°
2026-05-04 17:45 45.74717 -74.77134 22263 ft 359 kts 282°
2026-05-04 17:45 45.75135 -74.80668 22624 ft 361 kts 283°
2026-05-04 17:45 45.75557 -74.84225 22989 ft 363 kts 283°
2026-05-04 17:45 45.76001 -74.87795 23333 ft 365 kts 284°
2026-05-04 17:46 45.76518 -74.91363 23632 ft 366 kts 285°
2026-05-04 17:46 45.77078 -74.94931 23920 ft 368 kts 286°
2026-05-04 17:46 45.77658 -74.98510 24233 ft 370 kts 286°
2026-05-04 17:46 45.78239 -75.02116 24552 ft 371 kts 286°
2026-05-04 17:47 45.78811 -75.05725 24877 ft 373 kts 285°
2026-05-04 17:47 45.79376 -75.09356 25197 ft 374 kts 285°
2026-05-04 17:47 45.79935 -75.13003 25502 ft 375 kts 285°
2026-05-04 17:47 45.80491 -75.16666 25819 ft 377 kts 285°
2026-05-04 17:48 45.81047 -75.20344 26135 ft 378 kts 285°
2026-05-04 17:48 45.81602 -75.24033 26435 ft 380 kts 285°
2026-05-04 17:48 45.82154 -75.27699 26747 ft 381 kts 285°
2026-05-04 17:48 45.82714 -75.31423 26997 ft 383 kts 285°
2026-05-04 17:49 45.83279 -75.35170 27259 ft 385 kts 285°
2026-05-04 17:49 45.83845 -75.38926 27534 ft 386 kts 285°
2026-05-04 17:49 45.84413 -75.42710 27825 ft 388 kts 285°
2026-05-04 17:49 45.84977 -75.46496 28110 ft 389 kts 285°
2026-05-04 17:50 45.85543 -75.50305 28400 ft 391 kts 285°
2026-05-04 17:50 45.86109 -75.54121 28675 ft 392 kts 285°
2026-05-04 17:50 45.86678 -75.57958 28945 ft 394 kts 285°
2026-05-04 17:50 45.87250 -75.61811 29191 ft 395 kts 285°
2026-05-04 17:51 45.87821 -75.65672 29433 ft 396 kts 285°
2026-05-04 17:51 45.88389 -75.69547 29646 ft 397 kts 284°
2026-05-04 17:51 45.88958 -75.73435 29851 ft 399 kts 284°
2026-05-04 17:51 45.89530 -75.77334 30028 ft 400 kts 284°
2026-05-04 17:52 45.90103 -75.81240 30232 ft 400 kts 284°
2026-05-04 17:52 45.90664 -75.85087 30501 ft 398 kts 284°
2026-05-04 17:52 45.91226 -75.88972 30785 ft 397 kts 284°
2026-05-04 17:52 45.91783 -75.92844 31063 ft 395 kts 284°
2026-05-04 17:53 45.92338 -75.96702 31349 ft 393 kts 284°
2026-05-04 17:53 45.92900 -76.00540 31630 ft 391 kts 286°
2026-05-04 17:53 45.93744 -76.04237 31899 ft 388 kts 295°
2026-05-04 17:53 45.94896 -76.07726 32161 ft 386 kts 296°
2026-05-04 17:54 45.96061 -76.11189 32447 ft 384 kts 296°
2026-05-04 17:54 45.97215 -76.14642 32736 ft 382 kts 296°
2026-05-04 17:54 45.98360 -76.18089 33023 ft 381 kts 296°
2026-05-04 17:54 45.99485 -76.21484 33291 ft 379 kts 296°
2026-05-04 17:55 46.00613 -76.24901 33555 ft 378 kts 296°
2026-05-04 17:55 46.01739 -76.28314 33790 ft 377 kts 296°
2026-05-04 17:55 46.02864 -76.31724 33951 ft 377 kts 296°
2026-05-04 17:55 46.03991 -76.35139 34079 ft 379 kts 296°
2026-05-04 17:56 46.05126 -76.38565 34204 ft 380 kts 296°
2026-05-04 17:56 46.06263 -76.42001 34318 ft 380 kts 296°
2026-05-04 17:56 46.07399 -76.45438 34459 ft 381 kts 296°
2026-05-04 17:56 46.08538 -76.48895 34581 ft 382 kts 296°
2026-05-04 17:57 46.09675 -76.52354 34696 ft 383 kts 296°
2026-05-04 17:57 46.10812 -76.55830 34826 ft 384 kts 296°
2026-05-04 17:57 46.11950 -76.59312 34943 ft 385 kts 296°
2026-05-04 17:57 46.13090 -76.62805 35069 ft 385 kts 296°
2026-05-04 17:58 46.14234 -76.66314 35194 ft 386 kts 296°
2026-05-04 17:58 46.15376 -76.69817 35314 ft 387 kts 296°
2026-05-04 17:58 46.16521 -76.73336 35439 ft 387 kts 296°
2026-05-04 17:58 46.17652 -76.76809 35551 ft 388 kts 296°
2026-05-04 17:59 46.18796 -76.80334 35675 ft 388 kts 296°
2026-05-04 17:59 46.19938 -76.83864 35798 ft 388 kts 296°
2026-05-04 17:59 46.22222 -76.90931 36071 ft 389 kts 295°
2026-05-04 18:00 46.23366 -76.94474 36203 ft 389 kts 295°
2026-05-04 18:00 46.24507 -76.98012 36325 ft 389 kts 295°
2026-05-04 18:00 46.25650 -77.01558 36451 ft 389 kts 295°
2026-05-04 18:00 46.26790 -77.05104 36590 ft 389 kts 295°
2026-05-04 18:01 46.27927 -77.08650 36718 ft 388 kts 295°
2026-05-04 18:01 46.29062 -77.12187 36839 ft 388 kts 295°
2026-05-04 18:01 46.30196 -77.15726 36976 ft 388 kts 295°
2026-05-04 18:02 46.32460 -77.22795 37242 ft 386 kts 295°
2026-05-04 18:02 46.33583 -77.26314 37378 ft 385 kts 294°
2026-05-04 18:02 46.34701 -77.29829 37522 ft 384 kts 294°
2026-05-04 18:02 46.35815 -77.33327 37661 ft 382 kts 294°
2026-05-04 18:03 46.38031 -77.40298 37674 ft 385 kts 294°
2026-05-04 18:03 46.40271 -77.47386 37673 ft 389 kts 294°
2026-05-04 18:04 46.42527 -77.54536 37667 ft 392 kts 294°
2026-05-04 18:05 46.45951 -77.65404 37668 ft 398 kts 294°
2026-05-04 18:05 46.48255 -77.72738 37664 ft 401 kts 294°
2026-05-04 18:06 46.51728 -77.83874 37660 ft 404 kts 294°
2026-05-04 18:06 46.54038 -77.91303 37690 ft 403 kts 294°
2026-05-04 18:07 46.56343 -77.98743 37663 ft 405 kts 294°
2026-05-04 18:07 46.58653 -78.06226 37661 ft 406 kts 294°
2026-05-04 18:08 46.60956 -78.13687 37658 ft 407 kts 294°
2026-05-04 18:08 46.63267 -78.21207 37665 ft 407 kts 293°
2026-05-04 18:09 46.67878 -78.36228 37670 ft 406 kts 293°
2026-05-04 18:10 46.70166 -78.43738 37663 ft 405 kts 293°
2026-05-04 18:10 46.72441 -78.51244 37660 ft 404 kts 293°
2026-05-04 18:11 46.74709 -78.58744 37650 ft 404 kts 293°
2026-05-04 18:11 46.76973 -78.66233 37653 ft 403 kts 293°
2026-05-04 18:12 46.79230 -78.73715 37642 ft 403 kts 292°
2026-05-04 18:12 46.81485 -78.81214 37644 ft 403 kts 292°
2026-05-04 18:13 46.83731 -78.88709 37644 ft 403 kts 292°
2026-05-04 18:14 46.87088 -78.99968 37652 ft 403 kts 292°
2026-05-04 18:14 46.89310 -79.07439 37635 ft 404 kts 292°
2026-05-04 18:15 46.93756 -79.22529 37626 ft 404 kts 292°
2026-05-04 18:16 46.95988 -79.30090 37626 ft 404 kts 292°
2026-05-04 18:16 46.98208 -79.37649 37624 ft 404 kts 291°
2026-05-04 18:17 47.01521 -79.48979 37619 ft 403 kts 291°
2026-05-04 18:18 47.04821 -79.60311 37615 ft 403 kts 291°
2026-05-04 18:18 47.07017 -79.67863 37615 ft 402 kts 291°
2026-05-04 18:19 47.10296 -79.79189 37607 ft 401 kts 291°
2026-05-04 18:19 47.12460 -79.86726 37605 ft 400 kts 291°
2026-05-04 18:20 47.14616 -79.94267 37596 ft 400 kts 291°
2026-05-04 18:20 47.16759 -80.01766 37606 ft 401 kts 291°
2026-05-04 18:21 47.18916 -80.09325 37594 ft 401 kts 290°
2026-05-04 18:21 47.21062 -80.16905 37589 ft 401 kts 290°
2026-05-04 18:22 47.23211 -80.24472 37566 ft 401 kts 290°
2026-05-04 18:22 47.25340 -80.32004 37566 ft 401 kts 290°
2026-05-04 18:23 47.27472 -80.39592 37546 ft 401 kts 290°
2026-05-04 18:23 47.29600 -80.47186 37548 ft 401 kts 290°
2026-05-04 18:24 47.31723 -80.54788 37549 ft 401 kts 290°
2026-05-04 18:24 47.33843 -80.62392 37540 ft 401 kts 290°
2026-05-04 18:25 47.35961 -80.69998 37542 ft 401 kts 290°
2026-05-04 18:25 47.38076 -80.77607 37540 ft 401 kts 290°
2026-05-04 18:26 47.40180 -80.85218 37549 ft 401 kts 289°
2026-05-04 18:26 47.42277 -80.92851 37546 ft 401 kts 289°
2026-05-04 18:27 47.44355 -81.00429 37533 ft 400 kts 289°
2026-05-04 18:27 47.46445 -81.08061 37536 ft 401 kts 289°
2026-05-04 18:28 47.48529 -81.15705 37516 ft 401 kts 289°
2026-05-04 18:28 47.50602 -81.23367 37512 ft 401 kts 289°
2026-05-04 18:29 47.52678 -81.31029 37498 ft 401 kts 289°
2026-05-04 18:29 47.54756 -81.38698 37497 ft 401 kts 289°
2026-05-04 18:30 47.57502 -81.48906 37491 ft 401 kts 289°
2026-05-04 18:31 47.59559 -81.56583 37487 ft 401 kts 289°
2026-05-04 18:31 47.61940 -81.65510 37487 ft 400 kts 288°
2026-05-04 18:32 47.63649 -81.71946 37476 ft 400 kts 288°
2026-05-04 18:32 47.65670 -81.79575 37466 ft 400 kts 288°
2026-05-04 18:33 47.67703 -81.87261 37463 ft 400 kts 288°
2026-05-04 18:33 47.69735 -81.94941 37445 ft 400 kts 288°
2026-05-04 18:34 47.71760 -82.02637 37470 ft 400 kts 288°
2026-05-04 18:34 47.73775 -82.10330 37443 ft 400 kts 288°
2026-05-04 18:35 47.75782 -82.18047 37453 ft 400 kts 288°
2026-05-04 18:35 47.77787 -82.25773 37437 ft 401 kts 288°
2026-05-04 18:36 47.79797 -82.33522 37438 ft 402 kts 287°
2026-05-04 18:36 47.81804 -82.41285 37444 ft 402 kts 287°
2026-05-04 18:37 47.83810 -82.49060 37437 ft 403 kts 287°
2026-05-04 18:37 47.85798 -82.56803 37440 ft 403 kts 287°
2026-05-04 18:38 47.87793 -82.64610 37438 ft 403 kts 287°
2026-05-04 18:38 47.89781 -82.72431 37442 ft 403 kts 287°
2026-05-04 18:39 47.91772 -82.80259 37452 ft 403 kts 287°
2026-05-04 18:39 47.93757 -82.88107 37416 ft 405 kts 287°
2026-05-04 18:40 47.95744 -82.95990 37397 ft 407 kts 287°
2026-05-04 18:40 47.97730 -83.03902 37395 ft 408 kts 287°
2026-05-04 18:41 47.99711 -83.11796 37401 ft 409 kts 287°
2026-05-04 18:41 48.01704 -83.19757 37411 ft 409 kts 287°
2026-05-04 18:42 48.03691 -83.27749 37395 ft 411 kts 287°
2026-05-04 18:42 48.05682 -83.35803 37387 ft 413 kts 287°
2026-05-04 18:43 48.07668 -83.43884 37411 ft 415 kts 287°
2026-05-04 18:43 48.09670 -83.52004 37420 ft 417 kts 287°
2026-05-04 18:44 48.11667 -83.60146 37438 ft 417 kts 287°
2026-05-04 18:44 48.13659 -83.68308 37425 ft 417 kts 287°
2026-05-04 18:45 48.15633 -83.76433 37427 ft 418 kts 287°
2026-05-04 18:45 48.17619 -83.84618 37422 ft 418 kts 287°
2026-05-04 18:46 48.19610 -83.92818 37423 ft 419 kts 287°
2026-05-04 18:46 48.21593 -84.01032 37427 ft 419 kts 287°
2026-05-04 18:47 48.23556 -84.09253 37423 ft 419 kts 287°
2026-05-04 18:47 48.25517 -84.17486 37410 ft 419 kts 287°
2026-05-04 18:48 48.27460 -84.25661 37405 ft 418 kts 287°
2026-05-04 18:48 48.29411 -84.33886 37400 ft 418 kts 287°
2026-05-04 18:49 48.31361 -84.42120 37412 ft 418 kts 287°
2026-05-04 18:49 48.33302 -84.50372 37398 ft 419 kts 287°
2026-05-04 18:50 48.35233 -84.58651 37394 ft 419 kts 287°
2026-05-04 18:50 48.37165 -84.66929 37380 ft 420 kts 287°
2026-05-04 18:51 48.39098 -84.75214 37379 ft 420 kts 287°
2026-05-04 18:51 48.41018 -84.83511 37383 ft 420 kts 287°
2026-05-04 18:52 48.42921 -84.91762 37376 ft 420 kts 287°
2026-05-04 18:52 48.44830 -85.00063 37366 ft 420 kts 287°
2026-05-04 18:53 48.46736 -85.08375 37355 ft 420 kts 287°
2026-05-04 18:53 48.48635 -85.16700 37356 ft 420 kts 286°
2026-05-04 18:54 48.50525 -85.25029 37355 ft 420 kts 286°
2026-05-04 18:54 48.52416 -85.33385 37358 ft 421 kts 286°
2026-05-04 18:55 48.54308 -85.41747 37357 ft 421 kts 286°
2026-05-04 18:55 48.57114 -85.54249 37370 ft 421 kts 286°
2026-05-04 18:56 48.58985 -85.62627 37355 ft 421 kts 286°
2026-05-04 18:56 48.60855 -85.71014 37351 ft 422 kts 286°
2026-05-04 18:57 48.62722 -85.79435 37340 ft 423 kts 286°
2026-05-04 18:57 48.64576 -85.87878 37354 ft 423 kts 286°
2026-05-04 18:58 48.66433 -85.96349 37353 ft 424 kts 286°
2026-05-04 18:58 48.68291 -86.04831 37346 ft 424 kts 286°
2026-05-04 18:59 48.70121 -86.13264 37340 ft 425 kts 286°
2026-05-04 18:59 48.71982 -86.21819 37340 ft 425 kts 286°
2026-05-04 19:00 48.73815 -86.30276 37341 ft 425 kts 286°
2026-05-04 19:00 48.75156 -86.38959 37343 ft 423 kts 279°
2026-05-04 19:01 48.76278 -86.47703 37346 ft 423 kts 279°
2026-05-04 19:01 48.77402 -86.56468 37346 ft 423 kts 279°
2026-05-04 19:02 48.78515 -86.65223 37342 ft 423 kts 279°
2026-05-04 19:02 48.79629 -86.73969 37331 ft 423 kts 279°
2026-05-04 19:03 48.80732 -86.82729 37326 ft 423 kts 279°
2026-05-04 19:03 48.81836 -86.91489 37307 ft 423 kts 279°
2026-05-04 19:04 48.82929 -87.00260 37316 ft 423 kts 279°
2026-05-04 19:04 48.84003 -87.08982 37311 ft 423 kts 279°
2026-05-04 19:05 48.85073 -87.17775 37303 ft 423 kts 278°
2026-05-04 19:05 48.86142 -87.26553 37300 ft 423 kts 278°
2026-05-04 19:06 48.87209 -87.35341 37302 ft 423 kts 278°
2026-05-04 19:06 48.88268 -87.44121 37301 ft 423 kts 278°
2026-05-04 19:07 48.89320 -87.52915 37286 ft 423 kts 278°
2026-05-04 19:07 48.90357 -87.61723 37276 ft 423 kts 278°
2026-05-04 19:08 48.91389 -87.70526 37278 ft 423 kts 278°
2026-05-04 19:08 48.92425 -87.79345 37277 ft 423 kts 278°
2026-05-04 19:09 48.93453 -87.88156 37277 ft 423 kts 278°
2026-05-04 19:09 48.94467 -87.96975 37274 ft 423 kts 278°
2026-05-04 19:10 48.95472 -88.05737 37274 ft 423 kts 278°
2026-05-04 19:10 48.96482 -88.14577 37278 ft 424 kts 278°
2026-05-04 19:11 48.97484 -88.23418 37282 ft 424 kts 278°
2026-05-04 19:11 48.98474 -88.32264 37280 ft 424 kts 278°
2026-05-04 19:12 48.99953 -88.45552 37284 ft 424 kts 278°
2026-05-04 19:13 49.00930 -88.54421 37284 ft 425 kts 278°
2026-05-04 19:13 49.01899 -88.63294 37296 ft 425 kts 278°
2026-05-04 19:14 49.02851 -88.72118 37308 ft 425 kts 278°
2026-05-04 19:14 49.03806 -88.81008 37320 ft 425 kts 278°
2026-05-04 19:15 49.04756 -88.89906 37319 ft 425 kts 278°
2026-05-04 19:15 49.05704 -88.98801 37324 ft 425 kts 277°
2026-05-04 19:16 49.06644 -89.07704 37330 ft 425 kts 277°
2026-05-04 19:16 49.07569 -89.16601 37345 ft 424 kts 278°
2026-05-04 19:17 49.08489 -89.25491 37350 ft 425 kts 277°
2026-05-04 19:17 49.09402 -89.34394 37339 ft 425 kts 277°
2026-05-04 19:18 49.10312 -89.43241 37334 ft 425 kts 278°
2026-05-04 19:18 49.11216 -89.52150 37336 ft 424 kts 277°
2026-05-04 19:19 49.12106 -89.61060 37339 ft 424 kts 277°
2026-05-04 19:19 49.12994 -89.69968 37339 ft 424 kts 277°
2026-05-04 19:20 49.13880 -89.78877 37335 ft 424 kts 277°
2026-05-04 19:20 49.14757 -89.87792 37335 ft 424 kts 277°
2026-05-04 19:21 49.15623 -89.96708 37338 ft 424 kts 277°
2026-05-04 19:21 49.16334 -90.04113 37349 ft 424 kts 277°
2026-05-04 19:22 49.17180 -90.13018 37360 ft 423 kts 277°
2026-05-04 19:22 49.18156 -90.23358 37353 ft 423 kts 277°
2026-05-04 19:23 49.18856 -90.30810 37348 ft 423 kts 277°
2026-05-04 19:23 49.19692 -90.39704 37352 ft 423 kts 277°
2026-05-04 19:24 49.20520 -90.48551 37374 ft 423 kts 277°
2026-05-04 19:24 49.21334 -90.57453 37369 ft 422 kts 277°
2026-05-04 19:25 49.22143 -90.66349 37363 ft 422 kts 277°
2026-05-04 19:25 49.22939 -90.75254 37388 ft 422 kts 277°
2026-05-04 19:26 49.23735 -90.84154 37384 ft 422 kts 277°
2026-05-04 19:26 49.24529 -90.93064 37395 ft 422 kts 277°
2026-05-04 19:27 49.25310 -91.01918 37388 ft 422 kts 277°
2026-05-04 19:27 49.26082 -91.10845 37398 ft 422 kts 277°
2026-05-04 19:28 49.26853 -91.19761 37402 ft 422 kts 277°
2026-05-04 19:28 49.27621 -91.28683 37423 ft 422 kts 276°
2026-05-04 19:29 49.28376 -91.37600 37424 ft 422 kts 276°
2026-05-04 19:29 49.29119 -91.46528 37431 ft 422 kts 276°
2026-05-04 19:30 49.29850 -91.55385 37454 ft 422 kts 276°
2026-05-04 19:30 49.30586 -91.64321 37448 ft 423 kts 276°
2026-05-04 19:31 49.31322 -91.73261 37448 ft 423 kts 276°
2026-05-04 19:31 49.32041 -91.82213 37465 ft 423 kts 276°
2026-05-04 19:32 49.32748 -91.91177 37462 ft 423 kts 276°
2026-05-04 19:32 49.33451 -92.00147 37470 ft 424 kts 276°
2026-05-04 19:33 49.34155 -92.09124 37475 ft 424 kts 276°
2026-05-04 19:33 49.34856 -92.18111 37490 ft 425 kts 276°
2026-05-04 19:34 49.35546 -92.27117 37494 ft 425 kts 276°
2026-05-04 19:34 49.36222 -92.36052 37505 ft 425 kts 276°
2026-05-04 19:35 49.36895 -92.45049 37505 ft 424 kts 276°
2026-05-04 19:35 49.37569 -92.54042 37519 ft 424 kts 276°
2026-05-04 19:36 49.38230 -92.63049 37524 ft 424 kts 276°
2026-05-04 19:36 49.38882 -92.72041 37540 ft 424 kts 276°
2026-05-04 19:37 49.39526 -92.81038 37539 ft 424 kts 276°
2026-05-04 19:37 49.40172 -92.90052 37543 ft 424 kts 276°
2026-05-04 19:38 49.40797 -92.98983 37538 ft 424 kts 276°
2026-05-04 19:38 49.41421 -93.07979 37542 ft 424 kts 276°
2026-05-04 19:39 49.42042 -93.16971 37541 ft 423 kts 276°
2026-05-04 19:39 49.42652 -93.25971 37547 ft 423 kts 276°
2026-05-04 19:40 49.43249 -93.34969 37552 ft 423 kts 276°
2026-05-04 19:40 49.43847 -93.43957 37555 ft 423 kts 276°
2026-05-04 19:41 49.44435 -93.52947 37554 ft 423 kts 276°
2026-05-04 19:41 49.45019 -93.61944 37563 ft 423 kts 276°
2026-05-04 19:42 49.45596 -93.70938 37557 ft 423 kts 276°
2026-05-04 19:42 49.46166 -93.79928 37575 ft 423 kts 275°
2026-05-04 19:43 49.46723 -93.88932 37579 ft 423 kts 275°
2026-05-04 19:43 49.47272 -93.97883 37589 ft 424 kts 275°
2026-05-04 19:44 49.48420 -94.06732 37589 ft 424 kts 291°
2026-05-04 19:44 49.50966 -94.14948 37389 ft 428 kts 295°
2026-05-04 19:44 49.52273 -94.19050 36913 ft 427 kts 295°
2026-05-04 19:45 49.53575 -94.23156 36418 ft 426 kts 294°
2026-05-04 19:45 49.54872 -94.27262 35908 ft 426 kts 294°
2026-05-04 19:45 49.56166 -94.31364 35400 ft 426 kts 294°
2026-05-04 19:45 49.57459 -94.35469 34913 ft 426 kts 294°
2026-05-04 19:46 49.58751 -94.39574 34406 ft 426 kts 294°
2026-05-04 19:46 49.60044 -94.43681 33866 ft 426 kts 294°
2026-05-04 19:46 49.61336 -94.47786 33281 ft 425 kts 294°
2026-05-04 19:46 49.62626 -94.51887 32652 ft 424 kts 294°
2026-05-04 19:47 49.63906 -94.55972 32029 ft 422 kts 294°
2026-05-04 19:47 49.65179 -94.60051 31431 ft 420 kts 294°
2026-05-04 19:47 49.66441 -94.64099 30856 ft 417 kts 294°
2026-05-04 19:47 49.67690 -94.68113 30311 ft 411 kts 294°
2026-05-04 19:48 49.68914 -94.72069 29825 ft 406 kts 294°
2026-05-04 19:48 49.70125 -94.75978 29222 ft 401 kts 294°
2026-05-04 19:48 49.71319 -94.79835 28651 ft 395 kts 294°
2026-05-04 19:48 49.72490 -94.83633 28138 ft 388 kts 294°
2026-05-04 19:49 49.73643 -94.87376 27642 ft 383 kts 292°
2026-05-04 19:49 49.74540 -94.91213 27161 ft 378 kts 284°
2026-05-04 19:49 49.75004 -94.95185 26686 ft 374 kts 275°
2026-05-04 19:49 49.75071 -94.99199 26215 ft 373 kts 270°
2026-05-04 19:50 49.75056 -95.03191 25751 ft 371 kts 271°
2026-05-04 19:50 49.75049 -95.07162 25309 ft 368 kts 271°
2026-05-04 19:50 49.75044 -95.11107 24861 ft 366 kts 271°
2026-05-04 19:50 49.75036 -95.15029 24419 ft 363 kts 271°
2026-05-04 19:51 49.75027 -95.18920 23981 ft 361 kts 271°
2026-05-04 19:51 49.75014 -95.22788 23560 ft 358 kts 271°
2026-05-04 19:51 49.74998 -95.26626 23121 ft 356 kts 271°
2026-05-04 19:51 49.74982 -95.30446 22602 ft 354 kts 271°
2026-05-04 19:52 49.74964 -95.34243 22099 ft 352 kts 271°
2026-05-04 19:52 49.74946 -95.38007 21614 ft 349 kts 270°
2026-05-04 19:52 49.74927 -95.41759 21145 ft 348 kts 271°
2026-05-04 19:52 49.74908 -95.45479 20695 ft 346 kts 270°
2026-05-04 19:53 49.74888 -95.49187 20245 ft 344 kts 270°
2026-05-04 19:53 49.74867 -95.52875 19800 ft 341 kts 271°
2026-05-04 19:53 49.74846 -95.56531 19363 ft 339 kts 271°
2026-05-04 19:53 49.74822 -95.60114 18937 ft 335 kts 271°
2026-05-04 19:54 49.74798 -95.63710 18519 ft 332 kts 271°
2026-05-04 19:54 49.74773 -95.67238 18091 ft 322 kts 270°
2026-05-04 19:54 49.74745 -95.70652 17639 ft 315 kts 270°
2026-05-04 19:54 49.74719 -95.74013 17221 ft 311 kts 271°
2026-05-04 19:55 49.74693 -95.77352 16803 ft 311 kts 271°
2026-05-04 19:55 49.74665 -95.80685 16398 ft 308 kts 271°
2026-05-04 19:55 49.74637 -95.83976 16000 ft 305 kts 271°
2026-05-04 19:55 49.74608 -95.87251 15601 ft 306 kts 271°
2026-05-04 19:56 49.74580 -95.90518 15207 ft 302 kts 271°
2026-05-04 19:56 49.74553 -95.93764 14838 ft 302 kts 271°
2026-05-04 19:56 49.74525 -95.97007 14497 ft 301 kts 272°
2026-05-04 19:56 49.74493 -96.00214 14139 ft 298 kts 271°
2026-05-04 19:57 49.74461 -96.03410 13788 ft 296 kts 272°
2026-05-04 19:57 49.74428 -96.06572 13437 ft 293 kts 272°
2026-05-04 19:57 49.74395 -96.09725 13081 ft 293 kts 272°
2026-05-04 19:57 49.74358 -96.12879 12719 ft 292 kts 272°
2026-05-04 19:58 49.74320 -96.15995 12365 ft 288 kts 272°
2026-05-04 19:58 49.74282 -96.19079 12013 ft 285 kts 272°
2026-05-04 19:58 49.74244 -96.22126 11664 ft 281 kts 272°
2026-05-04 19:58 49.74205 -96.25116 11319 ft 275 kts 272°
2026-05-04 19:59 49.74169 -96.28041 11022 ft 270 kts 273°
2026-05-04 19:59 49.74132 -96.30919 10741 ft 267 kts 273°
2026-05-04 19:59 49.74094 -96.33782 10433 ft 268 kts 274°
2026-05-04 19:59 49.74057 -96.36660 10160 ft 267 kts 274°
2026-05-04 20:00 49.74021 -96.39515 9861 ft 266 kts 272°
2026-05-04 20:00 49.73984 -96.42389 9552 ft 268 kts 272°
2026-05-04 20:00 49.73946 -96.45245 9219 ft 263 kts 273°
2026-05-04 20:00 49.73905 -96.48038 8885 ft 257 kts 274°
2026-05-04 20:01 49.73862 -96.50774 8552 ft 253 kts 273°
2026-05-04 20:01 49.73907 -96.53454 8234 ft 246 kts 282°
2026-05-04 20:01 49.74105 -96.56051 7912 ft 241 kts 281°
2026-05-04 20:01 49.74290 -96.58592 7593 ft 236 kts 281°
2026-05-04 20:02 49.74471 -96.61103 7278 ft 234 kts 281°
2026-05-04 20:02 49.74652 -96.63598 6966 ft 232 kts 282°
2026-05-04 20:02 49.74826 -96.66033 6660 ft 229 kts 282°
2026-05-04 20:02 49.75001 -96.68494 6348 ft 225 kts 281°
2026-05-04 20:03 49.75167 -96.70846 6077 ft 221 kts 282°
2026-05-04 20:03 49.75334 -96.73184 5748 ft 218 kts 282°
2026-05-04 20:03 49.75499 -96.75490 5425 ft 213 kts 282°
2026-05-04 20:03 49.75657 -96.77734 5111 ft 207 kts 282°
2026-05-04 20:04 49.75809 -96.79921 4762 ft 202 kts 283°
2026-05-04 20:04 49.76051 -96.82017 4441 ft 192 kts 299°
2026-05-04 20:04 49.76924 -96.83462 4121 ft 186 kts 334°
2026-05-04 20:04 49.78204 -96.83678 3798 ft 193 kts
2026-05-04 20:05 49.79355 -96.82526 3475 ft 208 kts 44°
2026-05-04 20:05 49.79890 -96.80373 3155 ft 227 kts 79°
2026-05-04 20:05 49.79652 -96.77915 3017 ft 235 kts 100°
2026-05-04 20:05 49.79200 -96.75478 3000 ft 236 kts 102°
2026-05-04 20:06 49.78727 -96.73040 2997 ft 236 kts 102°
2026-05-04 20:06 49.78249 -96.70603 3000 ft 236 kts 102°
2026-05-04 20:06 49.77769 -96.68175 2997 ft 236 kts 102°
2026-05-04 20:06 49.77012 -96.65905 2985 ft 242 kts 131°
2026-05-04 20:07 49.75608 -96.64526 2990 ft 242 kts 167°
2026-05-04 20:07 49.73979 -96.64475 2991 ft 231 kts 201°
2026-05-04 20:07 49.72611 -96.65626 2996 ft 220 kts 230°
2026-05-04 20:07 49.71764 -96.67475 2994 ft 206 kts 255°
2026-05-04 20:08 49.71517 -96.69584 3002 ft 197 kts 279°
2026-05-04 20:08 49.71781 -96.71610 3002 ft 191 kts 290°
2026-05-04 20:08 49.72123 -96.73604 3001 ft 192 kts 290°
2026-05-04 20:08 49.72346 -96.74927 3000 ft 193 kts 290°
2026-05-04 20:09 49.72686 -96.76937 3000 ft 193 kts 290°
2026-05-04 20:09 49.73025 -96.78944 2980 ft 193 kts 290°
2026-05-04 20:09 49.73366 -96.80958 2991 ft 194 kts 290°
2026-05-04 20:09 49.73702 -96.82953 3000 ft 189 kts 290°
2026-05-04 20:10 49.74021 -96.84872 3000 ft 182 kts 290°
2026-05-04 20:10 49.74332 -96.86749 3000 ft 179 kts 291°
2026-05-04 20:10 49.74645 -96.88610 3004 ft 179 kts 291°
2026-05-04 20:10 49.74958 -96.90473 3011 ft 179 kts 291°
2026-05-04 20:11 49.75272 -96.92341 3011 ft 179 kts 290°
2026-05-04 20:11 49.75584 -96.94198 3013 ft 181 kts 289°
2026-05-04 20:11 49.75882 -96.96018 3019 ft 167 kts 291°
2026-05-04 20:11 49.76164 -96.97733 3023 ft 165 kts 290°
2026-05-04 20:12 49.76451 -96.99444 3018 ft 164 kts 291°
2026-05-04 20:12 49.76736 -97.01150 3019 ft 164 kts 290°
2026-05-04 20:12 49.77020 -97.02844 3014 ft 162 kts 291°
2026-05-04 20:12 49.77302 -97.04531 3019 ft 161 kts 291°
2026-05-04 20:13 49.77658 -97.06158 3014 ft 159 kts 302°
2026-05-04 20:13 49.78365 -97.07430 3021 ft 154 kts 318°
2026-05-04 20:13 49.79127 -97.08546 3021 ft 148 kts 319°
2026-05-04 20:13 49.79888 -97.09618 3021 ft 148 kts 320°
2026-05-04 20:14 49.80640 -97.10657 3038 ft 141 kts 320°
2026-05-04 20:14 49.81369 -97.11657 2978 ft 139 kts 320°
2026-05-04 20:14 49.82090 -97.12642 2839 ft 139 kts 320°
2026-05-04 20:14 49.82800 -97.13611 2666 ft 137 kts 320°
2026-05-04 20:15 49.83512 -97.14583 2487 ft 137 kts 320°
2026-05-04 20:15 49.84197 -97.15517 2309 ft 126 kts 320°
2026-05-04 20:15 49.84838 -97.16392 2137 ft 122 kts 320°
2026-05-04 20:15 49.85469 -97.17253 1959 ft 121 kts 320°
2026-05-04 20:16 49.86106 -97.18123 1790 ft 122 kts 320°
2026-05-04 20:16 49.86737 -97.18984 1585 ft 120 kts 320°
2026-05-04 20:16 49.87366 -97.19843 1394 ft 120 kts 320°
2026-05-04 20:16 49.87989 -97.20698 1210 ft 120 kts 322°
2026-05-04 20:17 49.88615 -97.21548 1042 ft 120 kts 322°
2026-05-04 20:17 49.89223 -97.22397 884 ft 117 kts 321°
2026-05-04 20:17 49.89824 -97.23217 789 ft 109 kts 321°
2026-05-04 20:17 49.90279 -97.23827 787 ft 48 kts 318°
2026-05-04 20:18 49.90423 -97.23983 787 ft 20 kts 353°
2026-05-04 20:18 49.90532 -97.23956 788 ft 10 kts
2026-05-04 20:18 49.90589 -97.23941 788 ft 7 kts
2026-05-04 20:18 49.90627 -97.23931 788 ft 5 kts
2026-05-04 20:19 49.90656 -97.23923 788 ft 6 kts
2026-05-04 20:19 49.90711 -97.23904 788 ft 8 kts 19°
2026-05-04 20:19 49.90755 -97.23861 788 ft 7 kts 43°
2026-05-04 20:19 49.90781 -97.23811 787 ft 5 kts 53°
2026-05-04 20:20 49.90807 -97.23736 787 ft 11 kts 69°
2026-05-04 20:20 49.90824 -97.23635 786 ft 8 kts 78°
2026-05-04 20:20 49.90837 -97.23531 786 ft 12 kts 79°
2026-05-04 20:20 49.90860 -97.23346 786 ft 20 kts 79°
2026-05-04 20:21 49.90875 -97.23159 786 ft 15 kts 85°
2026-05-04 20:21 49.90883 -97.23024 786 ft 10 kts 85°
2026-05-04 20:21 49.90864 -97.22815 786 ft 13 kts 118°
2026-05-04 20:22 49.90819 -97.22710 786 ft 10 kts 126°
2026-05-04 20:22 49.90778 -97.22668 786 ft 5 kts 174°
2026-05-04 20:22 49.90749 -97.22680 786 ft 7 kts 199°
2026-05-04 20:22 49.90694 -97.22688 786 ft 6 kts 168°
2026-05-04 20:23 49.90680 -97.22683 786 ft 1 kts 165°
2026-05-04 20:23 49.90673 -97.22680 786 ft 0 kts 165°
2026-05-04 20:23 49.90668 -97.22678 786 ft 0 kts 165°
2026-05-04 20:23 49.90667 -97.22677 786 ft 0 kts 165°